St. Cloud, MN

1:51 PM CST on December 16, 2017 (GMT -0600)
Saint Cloud Regional

Weather History for KSTC - September, 2011

Change the Weather History Date:

Tuesday, September 20, 2011

  Actual Average Record
Temperature  
Mean Temperature 58 °F 57 °F  
Max Temperature 66 °F 69 °F 91 °F (1908)
Min Temperature 50 °F 45 °F 26 °F (1991)
Degree Days  
Heating Degree Days 7 9  
Month to date heating degree days 123 118  
Since 1 July heating degree days 124 176  
Cooling Degree Days 0 1  
Month to date cooling degree days 49 30  
Year to date cooling degree days 607 459  
Growing Degree Days 8 (Base 50)    
Moisture  
Dew Point 49 °F    
Average Humidity 69    
Maximum Humidity 89    
Minimum Humidity 48    
Precipitation  
Precipitation 0.14 in 0.12 in 1.20 in (1921)
Month to date precipitation 0.69 2.45  
Year to date precipitation 26.04 22.03  
Snow  
Snow 0.00 in 0.00 in 0.00 in ()
Month to date snowfall 0.0 0.0  
Since 1 July snowfall 0.0 0.0  
Since 1 September snowfall 0.0 0.0  
Snow Depth 0.00 in    
Sea Level Pressure  
Sea Level Pressure 29.71 in    
Wind  
Wind Speed 13 mph (SSW)    
Max Wind Speed 37 mph    
Max Gust Speed 44 mph    
Visibility 9 miles    
Events Rain    
T = Trace of Precipitation, MM = Missing Value Source: NWS Daily Summary

Daily Weather History Graph

Daily Weather History Graph

Search for Another Location

Airport or City:

Trip Planner

Search our weather history database for the weather conditions in past years. The results will help you decide how hot, cold, wet, or windy it might be!

Date:

Astronomy

Sep. 20, 2011 Rise Set
Actual Time 7:00 AM CDT 7:18 PM CDT
Civil Twilight 6:30 AM CDT 7:47 PM CDT
Nautical Twilight 5:55 AM CDT 8:22 PM CDT
Astronomical Twilight 5:19 AM CDT 8:58 PM CDT
Moon No Moon Rise 2:59 PM CDT (9/20)
Length of Visible Light 13h 16m
Length of Day
12h 17m
Waning Gibbous, 48% of the Moon is Illuminated
Sep 20
Waning Gibbous
Sep 27
New
Oct 3
First Quarter
Oct 11
Full
Oct 19
Last Quarter

Hourly Weather History & Observations

Time (CDT) Temp. Dew Point Humidity Pressure Visibility Wind Dir Wind Speed Gust Speed Precip Events Conditions
12:53 AM 52.0 °F 46.0 °F 80% 29.91 in 10.0 mi SE 4.6 mph - N/A   Clear
1:53 AM 54.0 °F 45.0 °F 72% 29.88 in 10.0 mi SE 6.9 mph - N/A   Clear
2:53 AM 50.0 °F 44.1 °F 80% 29.87 in 10.0 mi SE 5.8 mph - N/A   Clear
3:53 AM 51.1 °F 45.0 °F 80% 29.86 in 10.0 mi SE 5.8 mph - N/A   Clear
4:53 AM 55.9 °F 45.0 °F 67% 29.85 in 10.0 mi South 10.4 mph - 0.01 in Rain Light Rain
5:53 AM 53.1 °F 48.0 °F 83% 29.82 in 10.0 mi SSE 10.4 mph - 0.02 in   Overcast
6:53 AM 54.0 °F 48.9 °F 83% 29.81 in 8.0 mi SE 10.4 mph - 0.01 in Rain Light Rain
7:53 AM 57.9 °F 52.0 °F 81% 29.77 in 10.0 mi SSE 19.6 mph 26.5 mph 0.04 in   Overcast
8:53 AM 60.1 °F 54.0 °F 80% 29.76 in 10.0 mi South 12.7 mph 21.9 mph N/A   Mostly Cloudy
9:53 AM 61.0 °F 55.0 °F 81% 29.70 in 10.0 mi SSE 15.0 mph 24.2 mph N/A   Scattered Clouds
10:53 AM 62.1 °F 55.9 °F 80% 29.71 in 10.0 mi SSW 11.5 mph - 0.00 in   Overcast
11:12 AM 62.6 °F 53.6 °F 72% 29.68 in 10.0 mi SW 15.0 mph 25.3 mph N/A   Overcast
11:53 AM 61.0 °F 52.0 °F 72% 29.71 in 10.0 mi WSW 13.8 mph - N/A   Overcast
12:18 PM 62.6 °F 51.8 °F 68% 29.67 in 10.0 mi SW 20.7 mph 24.2 mph N/A   Mostly Cloudy
12:53 PM 62.1 °F 48.9 °F 62% 29.70 in 10.0 mi WSW 17.3 mph 26.5 mph N/A   Overcast
1:53 PM 66.0 °F 46.0 °F 48% 29.69 in 10.0 mi SW 20.7 mph 31.1 mph N/A   Mostly Cloudy
2:53 PM 63.0 °F 42.1 °F 46% 29.70 in 10.0 mi SW 18.4 mph 28.8 mph N/A   Overcast
3:53 PM 62.1 °F 43.0 °F 50% 29.68 in 10.0 mi SSW 13.8 mph - N/A   Overcast
4:53 PM 60.8 °F 42.8 °F 52% 29.62 in 10.0 mi South 17.3 mph 24.2 mph N/A   Overcast
5:53 PM 60.1 °F 46.0 °F 60% 29.65 in 10.0 mi SSW 20.7 mph 32.2 mph N/A   Overcast
6:53 PM 57.9 °F 46.0 °F 65% 29.65 in 10.0 mi SSW 17.3 mph 29.9 mph N/A   Overcast
7:53 PM 55.4 °F 46.4 °F 72% 29.63 in 10.0 mi SW 16.1 mph 26.5 mph N/A   Overcast
8:53 PM 54.0 °F 48.0 °F 80% 29.66 in 10.0 mi SW 18.4 mph 32.2 mph N/A   Overcast
9:02 PM 53.6 °F 48.2 °F 82% 29.63 in 10.0 mi SSW 16.1 mph 24.2 mph N/A   Overcast
9:12 PM 53.6 °F 48.2 °F 82% 29.63 in 10.0 mi SSW 16.1 mph - N/A   Overcast
9:53 PM 53.1 °F 50.0 °F 89% 29.65 in 10.0 mi SW 11.5 mph - N/A   Overcast
10:53 PM 53.6 °F 51.8 °F 94% 29.62 in 8.0 mi SW 9.2 mph - N/A Rain Light Rain
11:04 PM 53.6 °F 51.8 °F 94% 29.62 in 2.5 mi SW 6.9 mph - 0.01 in Rain Rain
11:12 PM 53.6 °F 51.8 °F 94% 29.62 in 3.0 mi SW 9.2 mph - 0.05 in Rain Light Rain
11:25 PM 53.6 °F 51.8 °F 94% 29.63 in 10.0 mi SW 12.7 mph - 0.05 in   Overcast
11:53 PM 54.0 °F 51.1 °F 90% 29.66 in 10.0 mi WSW 11.5 mph - 0.05 in   Overcast